User: anonymous   Login
Location: ??????
(55.6500°N, 37.8000°E)
Time: 00:38:43
(UTC+00:00)
Language:

Cosmos 972 Rocket - Orbit

View from above orbital plane
View from above orbital plane
View from above satellite
View from above satellite

Ground track
Ground track

The orbit data is extracted from the following two-line orbital elements,

1 10541U 77123B   24168.94868788  .00000110  00000-0  71099-4 0  9992
2 10541  75.8354 122.9567 0299439 326.7625  31.5009 13.89117776355072
Epoch (UTC): 16 June 2024 22:46:06
Eccentricity: 0.0299439
inclination: 75.8354°
perigee height: 713 km
apogee height: 1150 km
right ascension of ascending node: 122.9567°
argument of perigee: 326.7625°
revolutions per day: 13.89117776
mean anomaly at epoch: 31.5009°
orbit number at epoch: 35507

The dashed part of the orbit path shows where the satellite is in the earth's shadow,  

DLR